Home > Weather > Simi Valley > Past weeks

Flag for USA Weather for the Past 2 Weeks in Simi Valley, California, USA

Now
76 °F

Scattered clouds.


Feels Like: 78 °F
Forecast: 51 / 77 °F
Wind: 7 mph from Southeast

Location: Van Nuys Airport

Current Time: May 2, 2016 at 12:43:25 PM

Latest Report: May 2, 2016 at 11:51 AM


Visibility: 10 mi

Pressure: 29.99 "Hg

Humidity: 42%

Dew Point: 51 °F

Location of Simi ValleyLocation

Historic Weather in Simi Valley — Graph

°F

Simi Valley Temperature Yesterday

Maximum temperature yesterday: 74 °F (at 1:51 PM)
Minimum temperature yesterday: 55 °F (at 2:51 AM)
Average temperature yesterday: 63 °F

High & Low Weather Summary for the Past Weeks

 TemperatureHumidityPressure
High90 °F (Apr 17, 3:51 PM)87% (Apr 22, 5:51 AM)30.05 "Hg (Apr 22, 5:51 AM)
Low49 °F (Apr 26, 6:51 AM)6% (Apr 17, 3:51 PM)29.71 "Hg (Apr 27, 7:51 PM)
Average66 °F45%29.90 "Hg
* Reported Apr 17 10:51 AM — May 2 10:51 AM, Simi Valley, Weather by CustomWeather, © 2016

Note: Actual official high and low records may vary slightly from our data, if they occured in-between our weather recording intervals... More about our weather records

Advertising

Simi Valley Weather History for the Previous 24 Hours

Scroll right to see more
 ConditionsComfort  
Time TempWeatherWind HumidityBarometerVisibility
10:51 AM
Mon, May 2
72 °FSunny.5 mph46%30.00 "Hg10 mi
9:51 AM68 °FSunny.3 mph55%30.01 "Hg10 mi
8:51 AM62 °FSunny.No wind70%30.01 "Hg9 mi
7:51 AM59 °FSunny.No wind75%30.01 "Hg9 mi
6:51 AM56 °FClear.No wind84%29.99 "Hg10 mi
5:51 AM56 °FClear.No wind81%29.98 "Hg10 mi
4:51 AM56 °FClear.No wind81%29.97 "Hg10 mi
3:51 AM57 °FClear.No wind81%29.98 "Hg10 mi
2:51 AM57 °FPassing clouds.No wind81%29.98 "Hg10 mi
1:51 AM57 °FPassing clouds.3 mph81%29.98 "Hg10 mi
12:51 AM58 °FPassing clouds.5 mph78%29.99 "Hg10 mi
11:51 PM
Sun, May 1
58 °FClear.5 mph81%29.99 "Hg10 mi
10:51 PM60 °FPassing clouds.6 mph72%29.98 "Hg10 mi
9:51 PM60 °FPassing clouds.7 mph72%29.98 "Hg7 mi
8:51 PM60 °FClear.5 mph72%29.95 "Hg10 mi
7:51 PM63 °FPassing clouds.8 mph63%29.91 "Hg10 mi
6:51 PM66 °FPassing clouds.8 mph56%29.88 "Hg10 mi
5:51 PM71 °FScattered clouds.9 mph45%29.88 "Hg10 mi
4:51 PM73 °FScattered clouds.8 mph43%29.87 "Hg10 mi
3:51 PM73 °FPassing clouds.10 mph44%29.87 "Hg10 mi
2:51 PM74 °FPassing clouds.10 mph45%29.88 "Hg10 mi
1:51 PM74 °FSunny.13 mph45%29.88 "Hg10 mi
12:51 PM73 °FSunny.8 mph43%29.88 "Hg10 mi
Weather by CustomWeather, © 2016

See weather overviewHow to use our weather pages